EW7771 Weather Reports


Display with metric or nautical units.
time (UTC)temp
F
wind
direction
speed
MPH
gust
MPH
rain 1hr
in
rain 24hr
in
rain mn
in
humidity
%
barometer
mb
20260903144229 51 236 0.0 1.0 0.00 0.26 0.02 98 1008.3
20260903143728 51 236 0.0 2.0 0.00 0.26 0.02 97 1008.3
20260903143226 50 236 0.0 2.0 0.00 0.26 0.02 97 1008.3
20260903142724 50 240 0.0 1.0 0.00 0.26 0.02 97 1008.2
20260903142232 50 240 0.0 0.0 0.00 0.26 0.02 97 1008.2
20260903141724 50 240 0.0 0.0 0.00 0.26 0.02 97 1008.2
20260903141223 50 240 0.0 3.0 0.00 0.26 0.02 97 1008.2
20260903140725 50 240 0.0 3.0 0.00 0.26 0.02 97 1008.2
20260903140218 50 194 0.0 3.0 0.00 0.26 0.02 97 1008.1
20260903135711 50 236 0.0 3.0 0.00 0.26 0.02 97 1008.1
20260903135206 49 200 0.0 3.0 0.01 0.26 0.02 97 1008.1
20260903134659 49 200 0.0 3.0 0.01 0.26 0.02 97 1008.1
20260903134152 49 211 0.0 2.0 0.01 0.26 0.02 97 1008.0
20260903133648 49 198 0.0 1.0 0.01 0.26 0.02 97 1008.1
20260903133141 49 202 0.0 3.0 0.01 0.26 0.02 97 1008.1
20260903132129 49 210 2.0 5.0 0.01 0.26 0.02 97 1008.1
20260903131625 49 190 2.0 5.0 0.01 0.26 0.02 97 1007.9
20260903131117 49 214 1.0 4.0 0.01 0.26 0.02 97 1007.8
20260903130611 49 184 1.0 5.0 0.01 0.26 0.02 97 1007.8
20260903130333 49 193 1.0 5.0 0.01 0.26 0.02 97 1007.9
20260903125600 49 211 1.0 3.0 0.01 0.26 0.02 97 1007.8
20260903125053 49 163 1.0 5.0 0.00 0.25 0.01 97 1007.8
20260903124809 49 190 1.0 5.0 0.00 0.25 0.01 97 1007.9
20260903124041 49 217 1.0 3.0 0.00 0.25 0.01 97 1007.9
20260903123535 49 209 0.0 2.0 0.00 0.25 0.01 97 1007.8
20260903123036 49 197 0.0 1.0 0.00 0.25 0.01 97 1007.8
20260903122523 49 213 0.0 1.0 0.00 0.25 0.01 97 1007.8
20260903122017 49 219 0.0 1.0 0.00 0.25 0.01 97 1007.9
20260903121517 49 219 0.0 2.0 0.00 0.25 0.01 97 1007.9
20260903121007 49 219 0.0 2.0 0.00 0.25 0.01 97 1007.9
20260903120459 49 196 1.0 3.0 0.00 0.25 0.01 97 1007.8
20260903115953 49 207 0.0 3.0 0.00 0.25 0.01 97 1007.8
20260903115447 49 196 1.0 4.0 0.00 0.25 0.01 97 1007.8
20260903114942 49 188 1.0 4.0 0.00 0.25 0.01 97 1007.7
20260903114435 49 214 1.0 3.0 0.00 0.25 0.01 97 1007.8
20260903114322 49 219 0.0 2.0 0.00 0.25 0.01 97 1007.8
20260903114306 49 167 1.0 2.0 0.00 0.25 0.01 97 1007.8
20260903112917 49 194 0.0 2.0 0.00 0.25 0.01 97 1007.8
20260903112412 49 189 0.0 2.0 0.00 0.25 0.01 97 1007.8
20260903111905 49 206 0.0 1.0 0.00 0.25 0.01 97 1007.7
20260903111400 49 206 0.0 1.0 0.00 0.26 0.01 97 1007.7
20260903110853 49 206 0.0 1.0 0.00 0.26 0.01 97 1007.5
20260903110349 49 212 0.0 2.0 0.00 0.27 0.01 97 1007.6
20260903110101 49 212 0.0 2.0 0.00 0.28 0.01 97 1007.6
20260903105600 49 212 0.0 2.0 0.00 0.29 0.01 97 1007.7
20260903104830 49 196 0.0 2.0 0.00 0.30 0.01 97 1007.7
20260903104330 49 197 0.0 2.0 0.00 0.31 0.01 97 1007.6
20260903104108 49 201 0.0 1.0 0.00 0.32 0.01 97 1007.5
20260903103327 49 201 0.0 3.0 0.00 0.32 0.01 97 1007.5
20260903102827 49 209 0.0 3.0 0.00 0.32 0.01 97 1007.6
20260903102600 49 196 0.0 3.0 0.00 0.32 0.01 97 1007.7
20260903101827 49 203 1.0 3.0 0.00 0.32 0.01 97 1007.7
20260903101324 49 191 1.0 4.0 0.00 0.32 0.01 97 1007.6
20260903101043 49 228 1.0 4.0 0.00 0.32 0.01 97 1007.6
20260903100326 49 176 1.0 4.0 0.00 0.32 0.01 97 1007.6
20260903100322 49 217 1.0 4.0 0.00 0.32 0.01 97 1007.6
20260903095324 49 222 1.0 4.0 0.00 0.32 0.01 96 1007.7
20260903094824 49 184 0.0 2.0 0.00 0.32 0.01 97 1007.7
20260903094325 49 197 0.0 2.0 0.00 0.33 0.01 97 1007.6
20260903094302 49 215 0.0 2.0 0.00 0.33 0.01 97 1007.6
20260903093322 49 215 1.0 3.0 0.00 0.34 0.01 97 1007.7
20260903092822 49 205 0.0 3.0 0.00 0.35 0.01 96 1007.7
20260903092319 49 207 0.0 1.0 0.00 0.35 0.01 96 1007.6
20260903091818 49 207 0.0 3.0 0.00 0.35 0.01 96 1007.5
20260903091318 50 208 0.0 3.0 0.00 0.35 0.01 97 1007.5
20260903091050 50 192 0.0 2.0 0.00 0.35 0.01 97 1007.4
20260903090319 50 192 0.0 2.0 0.00 0.35 0.01 97 1007.4
20260903085818 50 193 1.0 3.0 0.01 0.35 0.01 97 1007.4
20260903085320 50 170 1.0 3.0 0.01 0.35 0.01 97 1007.5
20260903084818 50 189 1.0 3.0 0.01 0.35 0.01 97 1007.5
20260903084319 50 188 1.0 3.0 0.01 0.35 0.01 97 1007.4
20260903083819 50 212 0.0 2.0 0.01 0.35 0.01 97 1007.4
20260903083321 50 200 0.0 3.0 0.01 0.35 0.01 96 1007.4
20260903082818 50 209 0.0 3.0 0.01 0.35 0.01 97 1007.4
20260903082319 50 198 1.0 3.0 0.01 0.35 0.01 97 1007.4
20260903081819 50 198 1.0 3.0 0.01 0.35 0.01 96 1007.5
20260903081321 50 219 1.0 3.0 0.01 0.35 0.01 96 1007.4
20260903080822 50 206 2.0 4.0 0.01 0.35 0.01 96 1007.5
20260903080550 50 208 2.0 4.0 0.01 0.35 0.01 96 1007.4
20260903075822 50 214 1.0 4.0 0.00 0.34 0.00 96 1007.4
20260903075542 50 178 1.0 3.0 0.00 0.34 0.00 96 1007.4
20260903074812 50 221 1.0 3.0 0.00 0.34 0.00 96 1007.4
20260903074529 50 180 1.0 3.0 0.00 0.34 0.00 96 1007.4
20260903073756 50 211 0.0 3.0 0.00 0.34 0.00 96 1007.3
20260903073247 51 180 0.0 2.0 0.00 0.34 0.00 96 1007.3
20260903072750 51 237 0.0 1.0 0.00 0.34 0.00 96 1007.2
20260903072244 51 237 0.0 1.0 0.00 0.34 0.00 96 1007.2
20260903071740 51 237 1.0 3.0 0.00 0.34 0.00 96 1007.2
20260903071232 51 237 1.0 3.0 0.00 0.34 0.00 97 1007.2
20260903070726 51 191 0.0 1.0 0.00 0.34 0.00 96 1007.1
20260903070438 51 191 0.0 2.0 0.00 0.34 0.00 96 1007.2
20260903065939 51 191 0.0 2.0 0.00 0.34 0.34 96 1007.3
20260903065205 51 192 0.0 2.0 0.00 0.34 0.34 96 1007.3
20260903064924 51 192 0.0 3.0 0.00 0.34 0.34 96 1007.2
20260903064156 51 205 1.0 3.0 0.00 0.34 0.34 96 1007.2
20260903063652 51 210 0.0 2.0 0.00 0.34 0.34 96 1007.2
20260903063144 51 218 0.0 2.0 0.00 0.34 0.34 96 1007.2
20260903062903 51 218 0.0 1.0 0.00 0.34 0.34 96 1007.2
20260903062132 51 218 0.0 1.0 0.00 0.34 0.34 96 1007.2
20260903061627 51 218 0.0 0.0 0.00 0.34 0.34 96 1007.3
20260903061120 51 218 0.0 1.0 0.00 0.34 0.34 96 1007.2
20260903060613 51 218 0.0 2.0 0.00 0.34 0.34 96 1007.2
20260903060107 52 218 0.0 2.0 0.00 0.34 0.34 96 1007.1
20260903060052 52 221 0.0 4.0 0.00 0.34 0.34 96 1007.1
20260903055055 52 219 0.0 4.0 0.00 0.34 0.34 96 1007.2
20260903054550 52 228 0.0 1.0 0.00 0.34 0.34 96 1007.1
20260903054044 52 228 0.0 2.0 0.00 0.34 0.34 96 1007.1
20260903053540 52 228 0.0 2.0 0.00 0.34 0.34 96 1007.1
20260903053250 52 230 0.0 2.0 0.00 0.34 0.34 96 1007.1
20260903052748 52 231 0.0 3.0 0.00 0.34 0.34 96 1007.2
20260903052020 52 231 0.0 3.0 0.00 0.34 0.34 96 1007.2
20260903051517 52 193 0.0 2.0 0.00 0.34 0.34 96 1007.1
20260903051009 53 193 0.0 2.0 0.00 0.34 0.34 96 1007.1
20260903050509 53 194 1.0 3.0 0.00 0.34 0.34 96 1007.1
20260903050232 53 218 1.0 3.0 0.00 0.34 0.34 96 1007.1
20260903045727 53 215 0.0 3.0 0.00 0.34 0.34 96 1007.1
20260903045009 53 148 0.0 3.0 0.00 0.34 0.34 96 1007.1
20260903044510 53 212 0.0 3.0 0.00 0.34 0.34 96 1007.1
20260903044009 53 112 0.0 3.0 0.00 0.34 0.34 96 1007.0
20260903043508 53 206 0.0 3.0 0.00 0.34 0.34 96 1007.0
20260903043004 53 153 0.0 3.0 0.00 0.35 0.34 96 1006.8
20260903042514 53 219 1.0 3.0 0.00 0.35 0.34 96 1006.9
20260903042010 53 207 0.0 2.0 0.00 0.35 0.34 96 1006.8
20260903041721 53 234 0.0 1.0 0.00 0.35 0.34 96 1006.8
20260903041003 53 234 0.0 1.0 0.00 0.35 0.34 96 1006.8
20260903040502 53 236 0.0 1.0 0.00 0.35 0.34 96 1006.7
20260903040004 53 236 0.0 1.0 0.00 0.35 0.34 95 1006.7
20260903035502 53 236 0.0 2.0 0.00 0.35 0.34 95 1006.8
20260903035003 53 223 1.0 3.0 0.00 0.35 0.34 95 1006.7
20260903034456 54 225 1.0 3.0 0.00 0.35 0.34 95 1006.6
20260903034222 54 251 0.0 2.0 0.00 0.35 0.34 95 1006.6
20260903033456 54 208 0.0 3.0 0.00 0.35 0.34 95 1006.4
20260903032958 54 208 0.0 3.0 0.00 0.35 0.34 95 1006.5
20260903032456 54 214 0.0 2.0 0.00 0.35 0.34 95 1006.4
20260903031957 54 215 0.0 2.0 0.00 0.35 0.34 95 1006.3
20260903031456 54 220 0.0 2.0 0.01 0.35 0.34 95 1006.2
20260903030957 55 220 0.0 2.0 0.02 0.35 0.34 95 1006.1
20260903030459 55 281 0.0 0.0 0.03 0.35 0.34 95 1006.2
20260903025955 55 281 0.0 0.0 0.04 0.35 0.34 95 1006.0
20260903025453 55 281 0.0 1.0 0.06 0.35 0.34 95 1006.0
20260903024954 55 281 0.0 3.0 0.08 0.35 0.34 95 1006.0
20260903024454 55 281 0.0 3.0 0.10 0.35 0.34 95 1006.0
20260903023954 55 169 0.0 1.0 0.11 0.35 0.34 95 1005.9
20260903023452 55 199 0.0 1.0 0.12 0.36 0.34 95 1005.9
20260903022951 55 49 0.0 1.0 0.12 0.36 0.34 94 1005.8
20260903022452 55 49 0.0 0.0 0.14 0.36 0.34 94 1005.8
20260903022441 55 49 0.0 1.0 0.14 0.36 0.34 94 1005.8
20260903021724 56 49 0.0 1.0 0.13 0.35 0.33 94 1005.8
20260903020950 56 49 0.0 2.0 0.12 0.34 0.32 94 1005.6
20260903015948 56 103 1.0 3.0 0.10 0.32 0.30 95 1005.6
20260903015706 56 113 1.0 5.0 0.08 0.30 0.28 95 1005.3
20260903014931 57 194 1.0 5.0 0.06 0.28 0.26 95 1005.3
20260903014426 57 155 1.0 3.0 0.04 0.26 0.24 96 1005.0
20260903013918 57 116 1.0 4.0 0.03 0.25 0.23 95 1005.0
20260903013413 57 130 2.0 7.0 0.02 0.24 0.22 95 1004.8
20260903012906 57 143 2.0 7.0 0.01 0.23 0.22 95 1004.7
20260903012402 57 161 1.0 4.0 0.00 0.22 0.20 95 1004.5
20260903011855 57 226 0.0 3.0 0.00 0.22 0.20 95 1003.8
20260903011844 57 255 1.0 3.0 0.00 0.22 0.20 95 1003.6
20260903010843 58 229 0.0 3.0 0.00 0.22 0.20 95 1003.5
20260903010338 58 49 0.0 2.0 0.00 0.22 0.20 95 1003.5
20260903005831 58 49 0.0 2.0 0.00 0.22 0.20 95 1003.6
20260903005324 58 38 1.0 3.0 0.00 0.22 0.20 95 1003.6
20260903004818 58 196 1.0 5.0 0.01 0.22 0.20 95 1003.6
20260903004315 58 195 1.0 5.0 0.01 0.22 0.20 95 1003.6
20260903003807 58 217 1.0 4.0 0.02 0.22 0.20 95 1003.7
20260903003302 58 219 0.0 4.0 0.03 0.22 0.20 95 1003.8
20260903003020 58 142 0.0 1.0 0.04 0.22 0.20 94 1003.9
20260903002250 59 142 0.0 1.0 0.05 0.22 0.20 95 1003.9
20260903001743 59 142 0.0 1.0 0.06 0.22 0.20 95 1004.0
20260903001238 59 142 0.0 1.0 0.06 0.22 0.20 95 1004.0
20260903000731 59 190 0.0 1.0 0.07 0.22 0.20 94 1004.0
20260903000457 59 190 0.0 3.0 0.07 0.22 0.20 94 1004.0
20260902235720 59 190 0.0 3.0 0.08 0.22 0.20 94 1003.8
20260902235213 59 48 0.0 2.0 0.08 0.22 0.20 94 1003.8
20260902234707 59 50 0.0 2.0 0.07 0.21 0.19 94 1003.8
20260902234202 60 178 0.0 2.0 0.08 0.21 0.19 93 1004.0
20260902233654 60 121 0.0 1.0 0.08 0.20 0.18 93 1004.1
20260902233149 60 202 0.0 1.0 0.06 0.18 0.17 92 1004.5
20260902232643 60 202 0.0 0.0 0.06 0.18 0.16 92 1004.4
20260902232138 60 202 0.0 0.0 0.05 0.17 0.15 92 1004.4
20260902231632 60 203 0.0 2.0 0.04 0.16 0.14 91 1004.2
20260902231348 60 203 0.0 2.0 0.04 0.16 0.14 91 1004.2
20260902230619 60 132 0.0 2.0 0.03 0.15 0.13 91 1004.1
20260902230114 61 132 0.0 2.0 0.03 0.15 0.13 90 1004.0
20260902225607 61 134 0.0 2.0 0.02 0.14 0.12 89 1004.0
20260902225101 61 134 1.0 3.0 0.02 0.14 0.12 88 1003.8
20260902224555 62 134 1.0 7.0 0.01 0.13 0.12 85 1003.7
20260902224050 62 226 2.0 7.0 0.01 0.13 0.11 83 1003.8
20260902223805 62 211 1.0 5.0 0.00 0.12 0.10 82 1003.7
20260902223037 63 227 1.0 5.0 0.00 0.12 0.10 80 1003.6
20260902222531 63 277 1.0 4.0 0.00 0.12 0.10 79 1003.5
20260902222026 63 317 0.0 2.0 0.00 0.12 0.10 82 1003.5
20260902221519 64 116 0.0 1.0 0.00 0.12 0.10 82 1003.3
20260902221016 64 138 0.0 1.0 0.00 0.12 0.10 83 1003.1
20260902220515 64 138 0.0 3.0 0.00 0.12 0.10 81 1002.9
20260902220015 64 138 0.0 3.0 0.00 0.12 0.10 79 1003.0
20260902215511 64 100 1.0 7.0 0.00 0.12 0.10 80 1003.1
20260902215011 64 213 2.0 7.0 0.00 0.12 0.10 77 1003.2
20260902214513 64 151 1.0 6.0 0.00 0.12 0.10 77 1003.2
20260902214021 64 168 2.0 6.0 0.00 0.12 0.10 77 1003.3
20260902213518 64 143 2.0 6.0 0.00 0.12 0.10 76 1003.2
20260902213013 65 131 1.0 5.0 0.00 0.12 0.10 76 1003.3
20260902212511 65 171 1.0 4.0 0.00 0.12 0.10 77 1003.4
20260902212010 66 142 1.0 3.0 0.00 0.12 0.10 77 1003.3
20260902211509 66 165 0.0 3.0 0.00 0.12 0.10 76 1003.3
20260902211010 66 320 0.0 2.0 0.00 0.12 0.10 79 1003.2
20260902210507 66 320 0.0 2.0 0.00 0.12 0.10 80 1003.1
20260902210003 66 248 0.0 2.0 0.00 0.12 0.10 81 1003.1
20260902205732 66 350 0.0 2.0 0.00 0.12 0.10 81 1003.0
20260902205003 65 26 0.0 2.0 0.00 0.12 0.10 80 1003.0
20260902204506 65 328 0.0 2.0 0.00 0.12 0.10 83 1003.0
20260902204002 65 313 0.0 2.0 0.00 0.12 0.10 86 1002.9
20260902203500 64 295 0.0 2.0 0.00 0.12 0.10 90 1002.9
20260902203000 64 249 0.0 1.0 0.00 0.12 0.10 89 1002.9
20260902202501 64 249 0.0 1.0 0.00 0.12 0.10 92 1002.9
20260902202002 64 249 0.0 1.0 0.00 0.12 0.10 93 1002.9
20260902201500 63 249 0.0 0.0 0.00 0.12 0.10 92 1002.9
20260902201001 63 249 0.0 0.0 0.00 0.12 0.10 92 1003.1
20260902200500 63 249 0.0 0.0 0.00 0.12 0.10 93 1003.1
20260902200002 63 249 0.0 0.0 0.00 0.12 0.10 93 1003.2
20260902195500 63 249 0.0 0.0 0.00 0.12 0.10 93 1003.3
20260902195231 63 249 0.0 0.0 0.00 0.12 0.10 92 1003.3
20260902194501 63 249 0.0 0.0 0.00 0.12 0.10 91 1003.5
20260902194002 63 249 0.0 1.0 0.00 0.12 0.10 90 1003.5
20260902193732 63 249 0.0 2.0 0.00 0.12 0.10 92 1003.6
20260902192959 63 249 0.0 2.0 0.00 0.12 0.10 87 1003.7
20260902192500 63 242 0.0 0.0 0.00 0.12 0.10 91 1003.7
20260902192002 63 242 0.0 0.0 0.00 0.12 0.10 92 1003.8
20260902191506 63 242 0.0 0.0 0.00 0.12 0.10 93 1003.9
20260902191451 63 242 0.0 2.0 0.00 0.12 0.10 94 1003.9
20260902190458 63 242 0.0 2.0 0.00 0.12 0.10 94 1004.0
20260902185950 62 256 0.0 1.0 0.00 0.12 0.10 94 1004.1
20260902185441 62 256 0.0 1.0 0.00 0.12 0.10 94 1004.0
20260902184937 62 256 0.0 1.0 0.00 0.12 0.10 94 1004.1
20260902184433 62 256 0.0 1.0 0.00 0.12 0.10 95 1004.1
20260902183926 62 256 0.0 0.0 0.00 0.12 0.10 95 1004.3
20260902183422 62 256 0.0 1.0 0.00 0.12 0.10 95 1004.4
20260902182915 62 256 0.0 1.0 0.00 0.12 0.10 95 1004.5
20260902182408 62 257 0.0 1.0 0.00 0.12 0.10 96 1004.6
20260902181905 62 257 0.0 1.0 0.00 0.12 0.10 96 1004.6
20260902181356 62 254 0.0 1.0 0.00 0.12 0.10 97 1004.7
20260902180850 61 254 0.0 1.0 0.00 0.12 0.10 97 1004.7
20260902180608 61 254 0.0 1.0 0.00 0.12 0.10 97 1004.7
20260902175838 61 254 0.0 1.0 0.00 0.12 0.10 97 1004.7
20260902175331 60 254 0.0 2.0 0.00 0.12 0.10 97 1004.8
20260902174824 60 254 0.0 2.0 0.00 0.12 0.10 98 1004.9
20260902174541 60 264 0.0 2.0 0.00 0.12 0.10 97 1005.0
20260902173811 60 264 0.0 2.0 0.00 0.12 0.10 97 1005.1
20260902173305 60 207 0.0 2.0 0.00 0.12 0.10 98 1005.0
20260902173011 59 198 0.0 1.0 0.00 0.12 0.10 98 1005.0
20260902172514 59 198 0.0 2.0 0.00 0.12 0.10 97 1005.1
20260902171748 59 198 1.0 2.0 0.00 0.12 0.10 97 1005.1
20260902171509 59 195 0.0 2.0 0.00 0.12 0.10 98 1005.1
20260902171000 59 200 0.0 2.0 0.00 0.12 0.10 97 1005.2
20260902170230 58 176 0.0 2.0 0.00 0.12 0.10 97 1005.1
20260902165724 58 175 0.0 1.0 0.00 0.12 0.10 97 1005.2
20260902165217 58 175 0.0 1.0 0.00 0.12 0.10 97 1005.2
20260902164714 57 175 0.0 2.0 0.00 0.12 0.10 97 1005.3
20260902164206 57 217 0.0 2.0 0.00 0.12 0.10 97 1005.3
20260902163657 57 217 0.0 2.0 0.00 0.12 0.10 97 1005.6
20260902163154 57 208 0.0 2.0 0.00 0.12 0.10 97 1005.5
20260902162650 56 210 0.0 2.0 0.00 0.12 0.10 97 1005.6
20260902162142 56 192 0.0 4.0 0.00 0.12 0.10 97 1005.6
20260902161635 56 202 0.0 4.0 0.00 0.12 0.10 97 1005.7
20260902161348 56 194 0.0 2.0 0.00 0.12 0.10 97 1005.8
20260902160626 56 199 0.0 2.0 0.00 0.12 0.10 97 1005.9
20260902160118 56 148 1.0 5.0 0.00 0.12 0.10 97 1005.9
20260902155830 56 165 1.0 5.0 0.00 0.13 0.10 97 1005.9
20260902155105 56 190 0.0 2.0 0.00 0.13 0.10 97 1006.1
20260902154602 56 157 0.0 4.0 0.00 0.13 0.10 97 1006.0
20260902154054 56 157 1.0 4.0 0.00 0.13 0.10 97 1006.2
20260902153547 56 212 0.0 3.0 0.00 0.13 0.10 97 1006.3
20260902153041 56 209 0.0 1.0 0.00 0.13 0.10 97 1006.3
20260902152534 56 209 0.0 2.0 0.00 0.13 0.10 97 1006.3
20260902152251 56 209 1.0 4.0 0.00 0.13 0.10 97 1006.4
20260902151524 56 199 1.0 4.0 0.00 0.13 0.10 97 1006.5
20260902151017 56 209 0.0 2.0 0.00 0.13 0.10 97 1006.6
20260902150514 56 206 0.0 2.0 0.00 0.13 0.10 97 1006.6
20260902150006 56 213 0.0 2.0 0.00 0.13 0.10 97 1006.8
20260902145500 56 213 1.0 3.0 0.00 0.13 0.10 97 1006.8
20260902144954 56 221 1.0 3.0 0.00 0.13 0.10 97 1006.9
20260902144449 56 200 1.0 3.0 0.00 0.13 0.10 97 1007.0